Regional Weather Roundup
Issued by NWS

Home | Current Version | Previous Version | Graphics & Text | Print | Product List | Glossary On
Versions: 1 2 3 4 5 6 7 8 9 10 11 12 13 14 15 16 17 18 19 20 21 22 23 24 25 26 27 28 29 30 31 32 33 34 35 36 37 38 39 40 41 42 43 44
200
ASUS44 KJAN 060203
RWRMS

MISSISSIPPI HOURLY WEATHER ROUNDUP
NATIONAL WEATHER SERVICE JACKSON MS
800 PM CST THU MAR 05 2015

NOTE: "FAIR: INDICATES FEW OR NO CLOUDS BELOW 12,000 FEET WITH NO
SIGNIFICANT WEATHER AND/OR OBSTRUCTIONS TO VISIBILITY.

MSZ001>002-007>008-010>013-018>021-025>028-034>036-060300-
NORTHWEST MISSISSIPPI

CITY           SKY/WX    TMP DP  RH WIND       PRES   REMARKS
CLARKSDALE     FAIR      27  19  74 CALM      30.58R
CLEVELAND      FAIR      28  20  71 NE8       30.57R WCI  20
GREENWOOD      CLEAR     28  13  53 N13G24    30.55R WCI  17
GREENVILLE     CLEAR     30  19  63 MISG      30.57R
OLIVE BRANCH   CLEAR     23  14  68 N6        30.56R WCI  16
OXFORD         FAIR      23   9  54 N8        30.56R WCI  14
TUNICA         CLEAR     27  19  74 N5        30.58R WCI  21
$$

MSZ003>006-009-014>017-022>024-029>033-037>039-060300-
NORTHEAST MISSISSIPPI

CITY           SKY/WX    TMP DP  RH WIND       PRES   REMARKS
COLUMBUS AFB   CLEAR     27  19  70 N6        30.50R WCI  20
CORINTH        FAIR      27  14  59 NW9       30.53R WCI  17
GOLDN TRIANGLE CLEAR     27  18  69 N12       30.48R WCI  16
STARKVILLE     FAIR      28  23  80 CALM      30.50R
TUPELO         CLEAR     27  13  55 N12       30.52R WCI  17
$$

MSZ040-058-060300-
CENTRAL MISSISSIPPI

CITY           SKY/WX    TMP DP  RH WIND       PRES   REMARKS
JACKSON INTL   PTCLDY    29  21  72 N10       30.50R WCI  20
JACKSON HAWKNS CLEAR     28  19  69 N9G17     30.51R WCI  19
MERIDIAN KEY   CLEAR     29  21  72 N13       30.46R WCI  19
MERIDIAN NAS   CLEAR     29  20  69 N8        30.48R WCI  21
VICKSBURG      CLEAR     30  16  56 N14       30.55R WCI  19
$$

MSZ059>079-060300-
SOUTH MISSISSIPPI

CITY           SKY/WX    TMP DP  RH WIND       PRES   REMARKS
BROOKHAVEN       N/A     30  27  86 CALM      30.48R
HATTIESBURG    PTCLDY    34  24  67 N14G22    30.45R WCI  25
MCCOMB         PTCLDY    30  20  66 N14G23    30.45R WCI  19
NATCHEZ        CLEAR     30  16  55 N15G28    30.51R WCI  19
PINE BELT      PTCLDY    30  21  69 N14G21    30.45R WCI  20
$$

MSZ080>082-060300-
COASTAL MISSISSIPPI

CITY           SKY/WX    TMP DP  RH WIND       PRES   REMARKS
BILOXI         CLOUDY    38  29  72 N17G29    30.36R WCI  28
PASCAGOULA     CLOUDY    37  28  70 N24G30    30.35R WCI  26
GULFPORT       CLOUDY    37  27  67 N17G25    30.37R WCI  27
$$



USA.gov is the U.S. government's official web portal to all federal, state and local government web resources and services.